Wind_Speed
21 19 19 21 22 22 23 23 23 22 20 18 16 15 14 14 13 10 7 8 9 9 9 9 8 9 8 7 7 6 7 7 7 7 7 6 5 4 3 2 1 1 1 2 3 4 5 7 8 7 6 5 5 5 6 7 7 8 9 10 13 13 12 14 11 6 6 7 9 11 12 11 12 14 14 13 12 12 10 9 8 8 8 8 8
20 19 17 17 19 21 21 23 23 21 20 18 17 16 15 15 15 12 10 11 13 11 11 10 11 12 12 11 10 9 8 7 8 9 10 10 9 8 7 6 4 3 2 1 1 2 2 3 5 6 6 5 4 4 4 5 5 6 7 8 11 12 12 12 10 7 6 6 8 10 11 12 13 14 15 15 14 13 12 11 10 10 9 9 9
19 19 16 15 16 17 18 20 21 20 19 18 17 17 16 16 14 12 11 13 15 15 13 13 14 14 14 14 14 12 10 8 8 10 12 14 14 12 10 10 8 7 6 5 3 3 3 3 3 3 4 3 4 4 4 4 3 4 5 6 8 9 10 10 10 9 8 7 8 10 12 12 13 14 15 15 15 14 14 13 12 11 11 11 11
15 16 16 15 15 15 15 16 17 17 17 17 17 16 16 15 14 12 12 13 14 14 14 14 15 17 18 18 17 15 13 11 10 11 13 15 16 16 15 13 12 10 9 9 8 7 6 5 5 4 4 4 4 4 4 4 3 3 4 4 4 6 7 8 9 8 8 8 7 9 11 11 12 14 15 16 16 15 15 15 14 14 15 15 15
13 13 14 13 13 14 14 15 14 14 15 16 16 16 15 14 15 14 12 11 10 11 12 12 14 18 20 20 20 20 18 16 14 13 14 15 16 18 19 18 15 13 12 11 11 10 10 9 8 8 7 7 6 5 5 5 4 3 3 2 2 3 4 5 7 7 7 7 7 7 9 10 11 14 16 17 17 16 17 17 17 18 20 20 20
12 11 11 11 11 12 13 14 14 14 15 15 16 16 14 11 12 12 10 9 9 9 11 12 15 20 21 20 20 21 21 20 18 17 17 16 15 16 20 21 19 17 15 14 13 13 13 12 11 11 11 10 9 8 7 6 6 6 5 4 3 2 2 4 5 5 6 7 6 7 8 10 11 13 15 18 18 17 19 21 20 21 23 23 24
13 11 10 10 10 11 12 12 12 13 15 15 14 14 12 9 8 9 9 9 9 11 14 14 14 17 21 21 19 18 18 18 18 19 19 19 17 17 20 23 22 20 18 17 15 15 14 14 14 14 14 14 13 12 11 10 9 9 7 6 6 5 3 1 3 2 3 5 6 7 8 9 11 13 14 16 16 17 21 24 24 26 27 26 27
14 13 11 11 11 11 11 10 10 11 12 11 9 10 11 10 10 10 9 8 10 12 14 13 12 14 18 18 17 16 15 16 16 17 17 18 19 20 22 23 22 20 20 19 18 16 16 16 16 16 16 16 16 16 14 13 12 11 10 8 8 7 4 1 1 1 3 5 6 7 8 9 11 13 14 16 16 17 19 21 23 26 28 29 28
14 13 12 11 10 10 10 10 9 8 8 8 8 10 10 10 11 10 9 9 11 11 11 12 13 14 16 16 15 14 14 14 14 14 15 16 17 19 20 20 20 19 19 19 18 18 17 18 19 19 18 18 18 19 18 16 15 13 12 11 10 8 4 1 1 2 4 6 6 7 8 10 11 13 15 16 15 16 17 18 20 22 26 29 28
12 12 11 10 10 10 10 10 8 6 7 7 7 7 7 8 8 7 7 7 9 9 9 9 10 11 12 12 11 10 10 11 11 12 13 14 16 17 17 17 16 17 17 18 18 18 18 18 18 19 19 19 19 21 21 20 18 16 13 11 9 7 4 2 1 3 4 5 5 7 9 10 11 12 13 13 14 15 16 18 19 22 24 27 27
9 9 9 9 9 9 9 9 8 8 8 8 8 7 6 6 5 4 4 5 5 5 5 5 5 6 7 7 6 6 6 6 7 8 9 10 11 12 13 13 14 14 15 16 16 16 15 15 15 16 17 19 20 21 22 23 20 17 13 10 8 6 4 3 3 4 4 4 4 6 7 9 10 11 12 13 15 16 17 18 19 21 21 20 20
11 11 11 11 11 10 10 9 10 10 11 11 11 10 10 9 9 8 7 6 5 4 3 2 2 1 1 1 2 3 4 5 5 6 7 7 8 9 10 11 11 12 13 13 13 13 12 13 13 14 15 17 18 19 21 23 20 16 13 11 9 8 5 5 5 5 4 4 4 5 6 8 10 11 12 13 15 16 17 18 18 19 20 18 18
13 13 13 13 12 11 11 11 11 13 14 14 14 13 13 12 12 11 11 10 9 8 7 6 5 4 4 4 5 5 6 6 7 7 7 7 7 8 9 10 11 11 11 11 11 11 12 13 14 14 14 15 16 17 19 20 18 16 14 13 11 8 6 5 6 6 6 6 6 5 7 9 10 11 12 13 14 16 17 19 20 19 20 20 21
11 11 11 12 12 11 11 12 13 14 15 15 15 14 13 13 12 11 10 9 9 8 8 6 5 5 4 5 5 6 7 8 9 9 9 10 9 9 9 9 10 10 11 11 10 11 12 13 13 13 12 13 14 14 15 17 18 17 14 12 9 7 6 5 5 5 6 7 7 7 8 10 10 11 12 13 14 16 17 18 20 20 20 20 21
8 9 9 9 10 10 10 11 12 13 13 13 13 12 12 10 9 8 7 7 7 6 5 4 4 3 4 4 6 7 8 9 10 10 11 11 11 11 10 9 9 10 11 11 11 11 11 12 12 12 11 11 12 12 12 16 18 16 13 10 8 6 5 4 4 5 6 7 8 9 9 10 10 11 12 14 14 15 16 17 18 18 19 19 20
11 10 10 10 10 10 11 11 12 11 11 11 11 11 10 9 8 7 6 6 5 4 4 3 2 2 3 5 6 7 8 8 8 9 9 10 10 11 11 10 10 10 10 11 11 11 11 11 10 10 9 9 9 8 12 16 17 14 12 9 7 5 5 5 5 6 7 8 9 9 9 10 11 11 12 13 14 15 15 15 16 16 16 17 19
11 10 10 10 10 11 11 12 12 12 11 11 11 11 10 10 9 8 7 6 5 3 2 1 1 2 3 4 6 8 8 8 8 8 9 10 10 10 10 10 10 9 8 9 9 9 9 8 7 6 6 6 6 9 12 14 13 11 9 7 5 5 5 5 6 7 8 9 9 9 9 10 11 12 13 13 13 13 13 14 15 15 14 14 14
3 2 4 4 4 4 6 7 9 10 10 11 10 10 10 9 9 8 6 5 4 2 1 0 1 2 3 4 6 8 8 8 9 10 11 11 10 10 10 10 9 8 6 6 5 5 4 3 2 2 3 5 7 9 10 9 9 8 6 4 3 4 5 5 6 7 8 9 9 9 10 11 11 12 12 12 12 12 13 15 16 16 16 14 13
4 4 4 5 5 4 3 3 4 5 6 7 7 7 7 7 7 6 5 4 3 2 1 1 2 3 4 5 6 7 7 8 8 9 10 10 9 9 9 8 7 6 4 2 1 1 2 3 3 3 5 6 7 7 6 5 5 4 3 4 4 4 5 6 7 8 8 9 10 10 11 11 12 12 12 12 12 13 14 16 17 17 18 18 17
8 7 8 8 8 7 6 5 3 2 3 4 4 4 4 4 3 2 2 2 2 2 2 3 4 5 6 6 7 7 7 7 8 8 8 8 7 7 7 7 5 4 3 2 3 4 5 6 6 6 6 6 6 5 3 2 2 2 3 4 4 5 6 7 8 9 10 10 11 11 12 12 12 13 13 14 15 15 16 16 16 17 19 20 19
14 13 13 12 11 9 9 8 7 7 7 6 4 4 3 2 2 1 0 1 1 1 2 3 4 5 6 7 7 7 7 7 8 8 7 6 6 6 5 4 5 5 5 5 5 6 7 7 7 6 5 4 3 1 0 1 3 4 4 5 5 6 7 8 9 9 10 10 11 11 12 13 14 15 16 16 17 16 16 15 15 16 18 20 21
16 17 17 16 14 13 13 12 11 11 11 9 7 7 6 5 5 4 3 2 2 2 2 3 3 4 5 6 7 8 8 8 8 7 6 5 5 5 4 2 4 6 7 7 8 8 7 7 6 5 3 1 1 2 3 4 5 5 5 5 5 6 6 7 8 8 9 10 11 12 13 15 16 17 18 18 18 17 17 17 17 18 19 20 22
16 17 18 18 18 18 16 15 14 14 13 11 10 10 9 8 8 6 5 5 4 4 4 4 4 4 5 6 8 9 9 8 8 7 6 5 3 3 2 2 4 7 8 8 9 9 8 6 5 3 2 2 3 3 3 3 3 3 3 4 4 4 5 6 7 9 11 12 14 15 16 17 18 19 19 19 19 19 19 21 21 22 23 23 24
17 19 19 19 19 19 18 17 16 15 14 13 12 12 11 10 9 8 7 7 6 6 6 6 6 7 7 8 9 10 10 9 8 8 6 5 4 3 3 4 6 7 7 8 8 8 6 5 3 2 1 1 1 2 2 2 3 3 3 3 4 5 7 8 10 12 13 15 16 17 18 18 19 19 20 20 21 22 23 24 25 25 26 26 26
17 19 21 21 21 21 20 19 18 17 15 14 13 12 11 11 10 10 9 9 9 9 9 9 10 10 10 10 11 11 11 9 8 8 7 7 6 6 6 6 7 7 7 8 8 7 5 4 3 2 2 2 2 2 3 3 3 4 4 5 7 8 10 11 12 14 15 16 17 18 18 19 19 20 22 23 23 23 24 23 23 22 22 22 21
15 15 16 17 18 19 19 19 18 17 15 14 13 12 11 11 11 10 10 11 11 11 11 12 12 12 12 13 13 13 11 10 10 9 9 9 8 8 8 8 8 7 7 8 8 6 5 5 4 4 4 3 3 3 3 4 4 6 7 8 10 11 11 13 14 15 16 16 17 18 19 20 21 21 22 21 20 19 18 17 18 17 17 17 17
16 14 12 12 13 14 15 16 16 16 15 14 13 13 12 12 11 11 11 12 12 12 13 14 14 14 15 15 14 14 12 11 12 12 11 11 10 10 9 9 8 8 8 8 8 7 7 7 6 6 5 4 3 3 4 5 6 7 8 9 10 11 12 13 14 15 16 16 15 16 18 20 19 18 17 16 16 15 14 15 16 17 16 17 17
18 17 15 13 13 14 14 15 15 15 15 14 13 13 13 13 14 14 14 14 14 15 15 16 17 17 17 17 16 15 14 14 15 15 14 13 12 11 10 9 9 8 8 9 9 9 9 9 8 6 5 3 4 5 6 6 7 8 9 10 11 13 14 15 15 15 14 13 13 14 15 16 16 15 15 15 15 15 15 16 17 17 16 16 17
20 19 18 18 17 16 16 16 16 15 15 14 14 14 14 14 15 16 16 16 16 17 17 18 18 18 19 19 18 16 15 15 16 17 16 15 13 11 10 10 9 9 9 9 10 11 11 9 7 5 4 5 6 7 7 8 8 9 10 12 13 14 15 15 16 16 14 12 12 13 14 15 15 15 16 16 16 16 17 18 17 16 16 16 17
21 21 20 20 19 18 17 17 16 16 15 15 15 15 15 15 16 17 17 17 18 19 20 20 19 19 19 19 18 17 16 17 16 17 18 15 12 11 9 10 10 10 11 11 11 11 10 8 6 5 5 6 7 7 8 9 10 11 12 13 14 15 16 16 16 17 17 15 14 15 15 15 16 16 16 17 17 17 18 18 18 18 18 18 18
22 22 22 21 20 19 18 17 16 15 15 15 15 15 16 16 17 18 19 19 20 21 22 21 21 20 20 19 18 18 19 18 16 18 19 16 13 12 11 11 11 11 12 12 11 10 8 6 6 5 6 6 6 7 8 9 11 12 14 14 14 16 18 18 18 18 17 16 16 16 15 16 16 16 17 19 19 19 19 19 18 18 19 18 19
20 22 21 19 18 17 15 15 14 14 15 15 15 16 17 18 19 19 20 20 21 22 22 23 23 23 23 22 21 21 20 17 16 18 19 16 14 14 13 12 13 14 12 10 9 9 7 6 6 5 5 5 5 7 8 9 11 13 14 15 16 18 19 20 20 19 17 16 16 16 16 16 17 18 19 20 20 20 20 19 19 19 19 19 19
15 16 15 13 12 12 13 13 14 15 15 16 16 16 17 18 20 20 19 18 19 20 20 20 22 23 25 24 23 21 19 16 17 20 20 18 17 16 15 15 15 13 11 8 8 9 7 6 6 5 4 5 5 6 8 9 11 13 15 16 18 20 20 20 20 20 19 18 18 18 17 17 17 18 19 19 20 20 19 19 19 19 19 19 19
10 11 10 10 11 12 13 14 14 15 15 15 16 17 17 18 18 18 17 17 16 17 16 17 20 23 23 22 19 17 17 18 21 22 21 20 19 18 17 17 15 11 8 7 8 9 7 6 5 4 3 4 5 6 8 10 13 15 17 18 19 19 20 20 20 21 21 21 20 19 17 17 18 19 20 21 21 20 20 20 19 18 18 19 19
8 9 9 10 11 11 12 12 13 13 14 15 16 17 17 17 16 16 16 16 15 13 12 13 15 16 16 16 15 16 18 22 24 24 23 22 21 19 18 17 14 11 9 7 8 8 7 5 5 4 3 4 5 7 9 12 15 17 19 20 20 20 20 20 21 22 21 20 20 19 19 20 22 23 23 22 22 21 21 20 20 19 19 19 19
6 7 8 8 9 9 10 11 12 13 14 15 16 16 15 15 15 15 15 15 15 13 11 10 10 11 12 14 16 18 22 25 26 25 24 22 20 18 16 15 14 13 11 9 8 7 6 5 4 3 3 3 5 8 11 13 16 18 20 20 21 21 20 20 21 21 21 21 20 21 22 22 24 24 24 23 22 22 22 22 21 21 21 20 20
5 5 5 6 6 7 8 9 11 12 13 14 14 14 14 14 15 16 15 14 14 14 13 13 14 15 15 16 19 23 25 26 26 24 22 20 17 13 11 12 13 12 11 9 7 6 5 5 4 3 2 3 6 9 11 14 17 19 20 20 21 21 20 20 20 21 22 22 22 22 23 24 25 25 24 22 22 23 23 23 22 23 23 23 22
3 3 3 4 4 4 5 6 8 10 12 12 12 13 13 14 14 15 15 15 15 16 16 18 19 22 23 23 24 26 27 26 25 23 19 16 14 11 10 11 11 10 9 8 6 5 6 5 4 2 2 5 7 10 12 15 17 19 20 21 21 20 20 20 20 22 23 24 23 23 24 25 26 26 24 22 22 23 24 24 23 23 23 23 21
3 1 1 2 1 0 2 4 5 7 9 10 10 11 12 13 14 15 15 16 16 17 17 17 18 23 27 27 26 27 26 24 22 20 17 15 13 12 11 10 9 8 8 7 6 6 6 5 3 1 3 6 8 11 13 15 18 19 21 21 21 20 20 20 21 22 24 24 24 25 25 26 27 27 25 24 23 23 24 24 23 23 22 21 20
4 2 2 1 3 2 3 5 3 4 5 6 7 9 11 13 15 16 17 18 18 18 17 18 20 23 26 27 26 26 25 22 20 19 17 16 14 12 10 8 8 8 8 7 7 7 7 5 2 1 4 7 9 12 13 16 18 20 20 21 21 21 20 20 20 22 24 25 25 25 25 26 27 27 27 25 25 24 24 24 24 24 22 21 21
5 4 4 4 4 1 5 6 4 2 3 6 8 10 12 14 17 19 20 20 21 21 21 21 21 20 22 23 22 22 22 21 19 17 16 15 13 11 9 8 8 8 7 7 7 8 6 4 1 2 5 8 10 12 14 17 19 20 20 21 21 21 20 19 20 22 24 25 25 25 26 26 27 27 26 26 26 26 26 25 25 25 24 22 22
5 4 4 5 3 3 6 5 5 6 8 10 12 15 16 17 19 20 20 20 21 22 22 20 18 17 17 16 15 15 16 17 16 15 15 14 12 11 10 9 8 7 6 7 7 7 5 2 1 4 6 9 11 13 16 18 19 20 21 21 21 21 21 20 21 23 24 25 26 26 26 26 26 26 26 26 26 26 26 25 25 25 23 22 21
4 3 3 3 2 4 4 5 6 8 10 12 13 14 16 17 18 19 19 18 19 20 20 19 16 15 14 13 10 10 11 13 14 14 14 13 12 11 10 9 7 6 6 7 7 6 4 1 2 5 7 9 12 14 16 18 19 20 20 21 21 21 21 21 23 24 25 25 26 27 27 26 26 26 27 26 26 25 25 25 25 24 23 22 21
3 3 2 1 2 3 5 7 7 8 10 12 13 13 13 14 15 16 16 17 17 17 17 16 14 13 11 10 8 9 11 13 15 15 14 13 11 10 9 8 6 6 6 6 5 4 2 1 3 5 7 9 11 14 16 17 18 19 19 20 20 20 21 22 24 25 25 25 27 27 27 26 26 26 26 26 25 25 25 25 24 24 23 22 19
4 4 4 4 5 6 7 8 8 8 9 10 11 12 12 13 13 13 14 14 14 14 13 12 11 10 10 9 10 11 14 16 16 15 13 11 10 9 8 7 6 6 5 4 4 3 1 2 4 5 7 8 11 14 15 16 16 17 17 18 19 20 21 22 23 24 24 25 27 27 27 26 26 26 25 25 24 24 24 25 24 23 22 20 18
6 6 5 5 7 8 9 9 8 8 8 8 9 10 11 11 10 10 10 10 10 10 10 10 11 11 11 12 13 15 17 17 15 13 11 10 9 9 8 8 6 5 4 3 2 2 2 3 4 6 8 9 11 14 15 15 15 16 16 17 18 19 20 21 22 22 22 23 25 26 26 25 25 25 24 24 23 23 24 24 24 23 21 20 18
7 6 5 5 6 8 9 9 9 8 9 9 10 11 11 11 10 10 11 10 11 11 11 12 12 14 15 16 17 17 17 15 13 12 10 9 8 8 8 7 6 4 3 2 2 2 3 4 5 7 9 10 12 14 15 14 15 16 17 17 18 19 20 21 22 22 21 22 24 25 25 24 24 24 24 23 22 23 23 23 23 22 21 19 17
7 6 5 5 7 8 9 10 10 10 11 12 12 13 13 13 13 13 13 13 13 14 14 14 15 16 17 18 17 16 15 14 12 10 9 8 7 7 7 6 4 3 3 2 2 2 3 4 6 8 10 11 12 14 15 14 15 16 17 17 18 19 20 20 21 21 20 20 22 23 24 23 24 24 23 23 22 22 22 22 22 21 20 18 16
7 7 6 7 7 8 9 10 11 12 12 13 14 14 14 15 15 15 15 15 15 15 16 16 17 17 17 17 16 15 13 12 11 9 8 7 6 6 5 4 4 3 3 2 2 3 4 6 7 9 10 11 12 14 14 14 14 15 17 18 18 19 19 19 20 20 20 19 21 22 23 23 24 24 23 23 23 22 22 21 21 20 19 18 16
8 8 8 8 8 9 10 10 12 13 13 14 15 15 15 15 16 15 15 15 15 15 15 15 15 15 15 14 14 12 11 10 9 7 6 5 5 5 4 3 3 2 2 3 3 4 6 7 9 10 10 11 12 13 14 13 13 14 16 18 18 19 19 19 19 20 19 18 20 22 22 23 23 24 23 23 23 23 22 22 21 20 19 17 15
10 10 11 11 11 12 12 12 13 14 14 14 15 16 16 16 16 15 15 15 15 15 14 14 13 13 13 12 11 10 9 8 7 6 4 2 2 3 3 3 3 3 3 4 5 5 7 9 10 10 10 10 11 12 13 14 13 13 14 16 17 19 19 19 19 20 19 17 18 21 22 22 23 24 24 23 23 23 22 22 21 20 18 16 14
Wind_Direction
210 211 208 207 210 211 215 217 212 209 208 211 218 221 223 224 222 217 214 230 244 247 250 254 256 259 262 265 270 278 283 279 277 281 286 290 291 292 292 281 230 176 119 110 118 130 127 117 113 114 119 109 88 79 81 86 89 87 81 76 77 73 71 84 99 108 93 67 45 42 37 29 30 31 30 31 31 28 24 21 20 18 18 17 13
211 213 211 208 210 213 215 215 212 210 210 214 220 221 223 227 229 230 229 238 250 255 257 258 259 260 263 269 271 269 274 281 287 290 291 289 285 280 279 276 272 264 254 249 163 176 174 145 127 121 122 120 106 100 101 99 94 87 82 74 75 72 67 76 90 94 85 67 44 39 35 29 29 28 24 22 22 20 18 18 17 13 10 7 2
212 214 213 210 209 210 213 215 215 214 214 216 216 214 217 223 229 236 239 244 254 262 266 265 265 266 266 269 272 269 265 270 287 295 290 286 284 282 279 276 273 271 268 268 264 250 239 218 191 158 147 144 129 126 130 127 117 99 87 73 66 67 62 60 67 71 69 58 37 29 30 27 24 23 20 16 14 14 14 15 15 16 14 9 4
204 206 209 210 208 207 209 214 217 216 215 216 213 210 212 219 230 243 250 253 261 271 273 270 271 272 269 270 274 273 270 271 282 285 281 282 285 285 282 278 275 275 275 273 268 263 258 248 242 235 215 198 178 161 158 156 149 131 110 89 68 68 62 47 44 51 55 52 38 24 22 22 19 15 10 8 8 8 9 8 6 7 6 4 3
186 192 199 201 202 204 206 210 213 212 209 208 206 205 210 220 231 238 248 257 261 268 274 272 268 268 270 273 275 274 274 277 281 276 269 272 281 287 286 281 278 278 278 275 271 268 267 262 255 251 244 230 216 202 191 188 183 169 154 142 122 98 80 51 35 35 40 43 41 23 13 12 11 7 3 2 2 1 1 1 360 359 357 356 358
180 175 178 181 186 192 198 204 209 207 200 194 192 199 207 216 223 226 233 244 244 246 259 266 265 266 269 273 274 273 274 278 279 273 266 264 271 282 284 280 277 276 276 275 273 270 269 269 264 257 252 244 234 224 216 213 209 204 199 193 194 183 126 54 24 19 28 32 29 16 7 2 2 1 359 359 359 356 355 354 353 353 351 350 351
182 170 166 169 170 175 182 189 193 190 182 177 182 193 203 213 225 229 233 240 243 242 247 253 257 261 265 267 268 270 272 278 280 275 270 267 263 266 275 279 279 277 276 275 273 272 271 269 267 262 258 255 247 238 232 229 226 221 215 208 207 206 195 17 347 342 15 19 10 4 1 357 357 356 355 357 357 355 354 353 349 346 346 346 347
182 176 169 167 166 167 167 167 173 175 166 165 182 201 211 222 231 237 241 249 254 249 247 250 251 252 257 260 263 267 271 277 281 279 277 272 267 267 273 279 281 280 279 277 275 274 275 273 270 265 262 260 257 252 246 241 236 229 222 218 213 209 205 206 278 337 3 358 351 350 349 348 350 350 350 354 357 355 355 353 346 342 340 341 342
176 178 176 177 180 180 175 173 180 179 167 173 199 209 217 227 232 242 256 265 267 261 255 257 256 254 256 260 266 274 279 280 281 284 286 284 279 279 279 280 282 282 282 281 278 277 278 278 276 270 266 263 261 259 257 252 248 240 231 224 217 211 207 186 89 15 356 345 341 337 334 339 346 348 350 353 355 351 347 345 342 340 337 335 336
166 172 177 183 189 192 191 188 186 175 159 168 184 188 199 218 229 244 259 262 261 255 250 252 255 257 260 264 270 278 282 283 288 292 293 291 289 286 283 281 283 284 283 282 280 278 278 278 276 274 272 267 260 258 256 253 251 247 242 234 224 223 234 252 306 328 322 321 327 327 329 337 345 350 349 346 344 340 338 340 339 337 337 335 333
145 149 155 163 170 175 178 175 167 158 151 154 157 154 158 171 180 196 213 220 225 227 232 243 252 258 261 262 267 277 285 295 300 298 294 292 290 287 284 282 282 282 282 284 284 283 283 282 279 276 275 271 263 256 253 251 248 244 238 229 220 227 246 261 275 287 291 302 318 324 328 332 336 339 337 334 332 331 332 334 335 334 336 336 328
124 125 127 135 143 147 152 155 153 152 151 150 149 145 142 141 141 143 144 142 143 146 148 149 160 190 246 289 329 345 353 350 335 321 312 300 292 289 287 284 282 281 281 283 286 290 292 292 289 284 281 278 272 261 252 247 242 233 221 210 209 219 229 244 263 275 280 290 303 309 314 318 321 322 323 323 322 323 323 324 327 328 327 323 314
117 117 119 123 127 130 138 143 141 138 137 134 133 132 129 125 122 121 120 121 121 119 115 107 98 86 67 48 36 25 14 4 358 352 344 330 313 298 288 285 284 282 281 282 284 289 292 292 292 290 288 284 278 269 256 242 227 214 206 203 207 214 226 249 267 273 276 279 281 287 296 302 305 307 311 314 314 316 317 317 319 319 315 313 309
118 117 120 122 122 123 128 131 131 128 126 125 124 123 120 116 114 114 114 115 115 112 109 102 88 71 52 39 26 9 357 352 348 344 341 336 329 318 305 295 289 286 284 281 280 283 287 289 290 290 290 287 282 274 254 229 209 201 199 200 205 216 232 255 265 270 276 280 281 284 288 290 293 298 304 307 308 310 312 311 313 312 309 308 306
109 111 115 116 119 124 127 131 134 132 129 127 124 121 119 116 114 113 110 111 115 114 111 104 91 66 33 19 8 354 348 345 342 339 336 332 327 322 315 307 299 292 286 282 280 282 285 289 292 294 292 287 283 272 240 211 199 196 197 201 211 219 225 240 258 275 283 285 287 288 287 288 293 297 300 303 305 305 305 305 306 307 307 306 305
88 93 100 103 109 119 128 138 142 140 138 135 129 126 125 123 122 121 120 122 122 117 112 99 69 37 13 4 2 355 349 346 345 346 344 337 329 322 317 313 307 297 288 284 282 284 288 293 296 296 289 280 271 248 215 202 197 197 199 202 206 212 225 247 266 278 282 283 286 289 289 291 296 300 302 303 304 304 302 300 302 304 304 303 304
69 72 81 87 93 103 117 128 132 133 135 132 127 123 123 122 121 120 122 128 128 123 120 89 14 357 352 354 356 353 349 349 352 353 354 349 342 332 326 322 314 300 291 287 287 290 294 300 304 297 281 260 227 199 195 199 200 199 198 198 205 228 251 267 276 278 279 284 289 293 296 299 301 304 306 307 306 305 301 298 304 306 302 300 301
65 49 56 62 72 94 113 123 127 128 129 127 123 119 117 113 108 105 106 111 112 114 120 308 298 305 323 336 340 340 340 342 346 349 351 351 347 341 336 330 319 306 301 299 301 309 319 334 337 285 232 193 178 177 184 197 202 198 200 216 240 260 270 276 282 284 286 293 299 301 302 304 305 306 307 306 305 305 301 300 306 306 299 294 294
210 229 230 233 236 223 200 174 150 137 133 133 131 128 126 119 108 98 91 82 73 67 47 351 320 316 323 326 326 326 327 330 335 340 342 346 349 345 337 329 316 301 294 294 319 32 67 98 118 157 171 163 164 172 179 194 209 218 246 267 268 266 272 280 285 289 294 298 300 301 302 303 304 304 303 301 301 301 299 300 301 299 295 293 292
243 243 231 224 223 220 218 220 230 233 205 179 161 155 150 136 121 104 74 49 33 19 356 330 316 311 311 312 311 309 310 317 325 331 334 340 348 347 337 324 303 272 242 205 159 136 134 136 138 147 158 163 169 177 184 207 250 272 280 283 280 278 285 293 295 298 302 303 304 305 306 306 305 304 302 301 301 301 298 296 292 291 293 294 292
262 255 245 233 220 218 225 236 247 247 234 220 208 200 203 206 206 216 233 5 334 311 295 292 292 293 295 297 296 295 299 306 313 317 320 327 342 350 343 317 282 247 211 186 171 158 151 149 145 146 155 163 167 181 249 313 317 314 312 312 311 307 305 305 305 307 308 308 308 309 309 308 306 306 305 305 305 304 300 293 287 285 289 294 293
271 261 252 239 228 229 234 233 230 226 222 221 222 222 227 234 238 239 241 255 270 264 255 263 270 278 286 288 287 287 289 291 294 296 298 306 324 343 346 309 256 235 213 190 176 169 166 163 160 158 168 198 264 290 300 307 312 316 319 320 319 317 314 311 311 312 312 312 313 313 311 311 309 308 307 307 306 305 300 294 289 284 283 286 289
272 266 256 242 232 233 233 226 220 219 219 221 223 225 226 229 233 239 245 250 250 242 243 252 257 264 273 278 281 283 280 277 279 281 280 276 282 307 318 253 225 224 218 200 182 171 167 167 170 179 218 274 294 304 314 324 330 338 341 335 329 324 318 315 314 314 315 316 316 314 313 312 311 310 309 307 304 302 298 294 292 289 286 284 284
267 263 256 245 235 229 225 221 221 222 222 221 221 221 222 223 226 232 238 237 231 232 240 246 251 258 265 269 271 272 269 266 266 267 262 246 236 241 228 207 207 210 204 190 178 171 166 164 167 179 240 327 2 15 24 32 27 19 8 349 335 326 321 320 320 318 318 318 316 315 313 312 311 309 307 304 301 298 295 293 292 291 289 287 284
273 260 254 248 237 227 220 218 218 220 219 218 219 219 219 220 221 224 228 228 228 233 239 243 250 257 263 267 267 263 259 254 248 243 234 218 210 206 196 189 190 193 188 176 170 169 169 167 158 142 125 104 96 81 57 47 31 9 354 340 332 328 326 325 323 321 320 319 316 314 311 309 308 307 304 303 300 298 296 296 296 295 294 292 290
289 269 259 251 239 227 220 216 215 215 216 219 222 223 224 225 227 228 230 232 236 241 244 247 251 254 260 265 263 256 250 242 233 225 215 206 198 193 188 182 179 181 179 171 168 168 163 157 150 139 130 118 100 74 46 26 1 344 339 334 333 333 332 330 327 325 322 319 314 310 307 306 306 305 305 304 303 302 303 303 304 305 304 303 300
295 282 269 259 245 231 223 220 217 216 218 221 224 227 230 234 237 240 241 242 243 245 247 249 250 253 258 262 257 250 243 235 225 215 207 201 196 191 188 181 175 176 174 167 166 163 152 144 139 131 122 109 78 41 17 359 346 342 342 340 339 337 333 330 326 324 321 317 311 306 306 308 309 309 308 308 307 307 309 310 309 308 307 306 303
289 284 277 268 254 239 230 227 226 225 226 229 231 235 238 242 246 249 252 254 254 253 253 254 254 256 259 257 251 242 234 229 225 218 211 204 195 189 186 183 179 178 174 166 159 152 147 142 133 123 108 81 47 21 8 1 357 353 348 343 339 336 333 332 331 329 326 321 316 314 314 316 315 312 311 310 307 307 309 311 309 306 305 304 300
280 278 276 269 257 243 233 231 232 235 238 238 240 242 242 244 248 250 252 255 258 259 259 258 259 262 261 256 247 236 232 237 236 224 214 208 201 197 195 189 181 171 167 165 157 149 144 137 127 114 81 46 30 21 15 8 1 354 349 347 346 346 348 349 348 343 338 331 325 322 321 319 315 313 312 309 305 305 308 308 304 300 298 295 289
276 272 269 266 257 246 239 238 239 242 245 246 246 247 246 247 249 250 251 251 252 255 257 258 259 259 257 254 250 245 250 259 247 220 206 201 198 197 193 185 176 165 159 159 155 149 143 131 111 85 56 40 33 27 19 6 357 354 354 356 357 358 357 357 353 346 340 334 326 321 318 316 313 312 311 309 307 306 306 303 299 295 292 287 283
273 267 263 258 251 245 243 244 246 249 251 254 256 257 257 256 255 254 255 254 252 252 254 255 256 255 252 252 252 250 253 258 241 213 200 194 190 188 182 174 167 160 157 156 150 145 140 124 101 76 53 45 39 26 13 3 360 359 358 359 1 359 356 354 351 345 337 329 323 319 316 315 312 311 310 309 307 306 303 300 298 294 290 286 284
270 263 258 252 247 245 247 251 255 258 261 264 266 267 267 267 265 262 260 258 258 257 254 252 252 251 250 250 250 248 247 243 223 202 193 186 183 180 173 163 155 151 155 156 146 136 129 116 102 82 57 48 37 19 8 5 4 2 358 355 354 354 353 353 351 346 338 329 323 319 317 315 312 310 308 307 306 303 301 300 299 295 292 289 286
271 263 258 258 258 260 263 266 268 270 271 272 272 271 269 268 268 267 265 263 262 261 259 254 248 245 245 247 247 244 240 224 201 189 185 180 175 169 159 151 148 150 155 156 143 134 129 117 103 88 65 47 28 14 11 8 4 0 356 352 350 350 352 352 350 348 343 337 329 322 317 313 312 310 309 308 306 302 299 299 298 295 293 290 287
270 266 266 273 274 273 275 275 275 276 276 274 273 270 267 264 265 265 264 260 256 257 258 252 244 240 240 239 235 230 219 201 187 181 178 173 169 164 154 149 149 151 154 151 142 138 134 120 104 90 70 44 23 14 13 8 2 359 356 351 349 349 350 350 350 348 344 337 330 323 317 316 318 318 315 311 308 304 301 299 298 294 291 289 287
269 275 276 281 280 277 276 275 274 274 273 271 271 269 267 265 263 258 255 251 244 242 244 241 233 228 225 218 210 204 196 185 177 175 173 168 164 160 154 150 150 150 146 142 138 135 130 119 106 94 71 45 24 14 9 6 2 359 355 352 349 348 348 350 349 344 338 332 326 324 324 327 329 326 320 313 308 305 302 300 298 295 292 290 288
271 283 281 281 279 274 272 272 271 271 271 269 268 264 261 258 254 248 245 241 231 222 214 204 194 190 191 191 188 184 180 173 168 167 165 162 160 159 156 153 153 151 146 142 137 132 125 117 111 100 75 39 17 8 5 3 0 357 354 352 349 347 348 348 345 338 333 331 331 330 331 333 332 328 321 313 310 307 304 302 301 299 296 294 291
278 285 277 276 275 272 274 277 275 273 271 267 262 255 248 245 243 238 231 222 212 202 185 169 159 153 153 162 168 168 166 162 160 159 158 158 160 164 163 159 156 152 147 141 139 135 129 126 125 111 58 14 4 2 1 360 357 353 351 351 350 348 347 346 344 340 337 337 336 334 333 334 333 329 322 315 311 309 307 306 304 301 299 298 294
264 278 269 276 281 281 290 292 285 278 272 264 255 246 237 231 227 220 210 199 191 180 166 157 151 144 143 149 156 157 154 153 154 156 158 160 163 164 162 155 151 148 145 143 142 139 134 134 136 116 19 359 357 358 358 355 351 349 349 350 350 348 347 346 347 347 345 342 338 336 335 335 335 331 324 317 312 311 310 309 306 302 300 298 294
221 241 263 280 263 172 333 316 292 275 266 256 243 232 222 211 201 192 183 174 167 160 155 150 144 140 141 145 148 149 148 150 154 156 157 159 158 155 151 147 144 144 147 146 144 143 145 147 147 89 360 353 356 358 354 348 345 346 349 350 347 345 345 347 348 350 348 343 339 338 337 336 335 333 328 322 316 313 312 311 308 304 301 298 295
201 197 202 184 159 149 353 347 316 261 244 226 210 199 190 181 171 163 155 148 143 142 139 134 131 133 139 145 148 150 151 152 154 155 154 152 150 147 145 144 145 145 145 145 146 150 155 159 154 8 353 354 357 355 348 343 343 345 347 347 344 343 344 347 349 350 348 343 340 338 337 336 336 333 330 326 322 318 316 314 313 311 307 304 302
198 193 193 183 178 217 360 17 41 83 128 145 148 146 145 146 143 139 137 134 133 131 129 128 129 135 142 147 151 155 155 153 152 154 152 149 147 144 140 139 140 139 140 145 152 160 167 170 176 346 353 358 356 349 343 342 343 344 345 344 343 343 345 348 351 350 346 344 342 339 337 337 336 333 329 327 327 326 323 321 320 318 315 312 310
184 172 177 187 208 313 360 37 67 71 82 103 114 117 119 123 124 124 125 125 126 128 129 129 133 137 139 140 145 152 152 150 150 152 150 148 145 141 138 137 138 140 148 157 163 170 177 182 331 349 358 359 352 346 344 344 342 342 343 343 343 345 347 351 352 350 346 345 345 342 339 338 338 335 332 332 332 331 329 326 324 323 321 319 318
159 141 158 190 276 336 18 77 92 81 80 87 93 100 107 111 112 115 117 118 122 127 131 133 135 136 135 136 140 144 145 148 150 151 149 147 145 144 143 143 142 147 158 166 170 177 186 209 349 356 358 356 351 347 346 343 341 341 342 341 343 347 351 352 352 350 347 346 346 345 343 341 339 337 336 335 334 333 332 330 328 326 326 325 324
145 132 139 131 39 48 82 104 105 95 91 90 90 96 105 110 113 117 119 122 126 131 133 136 138 138 139 143 150 151 151 152 152 150 149 148 147 146 146 145 145 154 165 172 177 185 201 317 356 358 355 352 350 348 345 342 341 341 340 341 344 350 354 355 353 351 349 348 347 347 346 344 341 338 337 337 338 337 337 335 332 329 329 330 330
128 120 109 92 82 82 93 104 108 108 107 104 101 105 112 117 121 123 123 123 127 131 135 140 147 152 155 157 158 156 154 152 149 147 147 148 149 150 151 153 159 169 177 185 195 209 271 348 357 354 350 350 350 349 345 344 344 342 341 343 347 351 356 356 354 352 351 350 349 348 348 346 344 341 338 338 341 342 341 339 336 333 333 335 335
120 115 102 92 88 87 91 99 107 117 124 122 118 117 118 119 122 124 127 128 131 135 141 148 154 158 158 155 152 150 148 146 145 145 146 148 152 156 160 165 174 184 192 197 207 241 319 347 349 345 345 348 349 349 347 346 346 346 347 349 351 353 355 356 355 353 353 352 350 350 350 349 348 346 343 343 345 346 346 346 343 339 339 341 343
118 113 103 90 86 89 95 100 105 115 124 128 128 126 123 122 122 125 130 135 138 141 144 147 148 148 146 145 144 144 143 142 142 142 144 151 157 161 166 174 183 192 199 204 220 268 317 336 338 337 340 344 347 349 350 349 349 351 353 354 355 356 356 355 354 354 354 354 353 354 354 353 352 351 351 351 352 352 352 351 348 346 346 347 349
118 113 109 101 96 100 104 105 106 110 116 120 122 121 120 120 122 124 127 130 132 134 136 138 139 140 139 139 140 140 139 139 138 139 143 151 159 164 172 181 190 196 204 214 241 287 315 327 329 332 338 343 346 349 351 350 351 355 358 358 358 358 357 355 354 353 353 354 356 357 358 358 357 356 356 357 359 358 357 356 354 352 352 353 354
122 119 116 112 108 108 109 109 110 112 113 116 118 118 117 118 120 122 124 126 126 127 131 133 135 136 138 138 138 138 137 136 135 136 142 153 161 167 174 184 191 198 208 226 259 290 307 318 325 330 335 340 344 348 350 349 352 357 0 0 360 358 357 356 355 353 352 354 357 360 2 2 2 2 2 3 3 3 2 2 1 359 357 356 358
122 119 115 112 109 110 112 114 115 116 117 119 120 118 118 119 119 120 122 123 123 124 128 132 134 136 138 137 137 136 135 133 130 128 132 146 160 168 173 181 192 204 221 245 271 289 302 314 321 325 329 335 341 345 347 350 354 358 0 1 1 358 355 354 355 355 353 354 357 360 2 4 5 6 7 7 7 6 6 7 7 6 3 1 1
115 111 110 110 111 113 115 116 116 117 118 119 118 117 117 117 116 116 118 119 119 122 126 129 132 134 136 136 136 135 131 126 121 116 110 116 152 168 175 189 207 227 247 266 282 293 303 311 316 319 323 330 336 339 343 349 354 356 357 359 2 0 357 355 356 357 357 356 357 360 1 3 6 8 10 10 9 9 8 9 9 10 9 7 6
Height
797 799 802 803 806 808 810 812 813 814 816 818 820 822 824 826 828 829 830 832 834 835 836 837 838 839 840 841 842 843 844 845 845 846 846 845 845 845 845 845 844 844 843 843 843 843 842 842 841 842 842 842 843 843 843 843 844 844 844 845 845 846 847 847 850 852 853 853 853 852 852 851 850 850 849 849 849 849 848 848 848 847 846 846 845
797 799 802 803 806 808 810 812 813 814 815 817 820 822 824 827 828 829 830 831 833 834 835 837 838 839 840 841 842 843 844 845 846 847 847 847 846 846 845 845 845 845 845 844 844 844 844 843 843 842 842 843 843 844 844 844 845 845 845 845 845 846 847 847 849 851 852 853 853 852 851 851 850 850 849 849 849 849 848 848 848 847 847 846 845
798 800 802 804 806 808 810 812 812 813 815 817 819 822 824 826 828 829 830 831 832 834 835 836 837 838 840 841 842 842 843 844 845 846 846 847 847 846 846 845 845 845 845 845 845 845 845 845 844 843 843 843 843 843 844 844 845 845 845 846 846 846 846 847 848 849 850 851 851 851 851 850 850 850 849 849 849 848 848 848 847 847 847 846 845
799 801 803 805 806 808 809 811 812 813 814 816 819 821 823 825 827 828 829 830 832 833 835 836 837 838 839 840 841 841 841 842 843 843 844 845 846 846 846 845 845 844 845 845 845 845 846 845 845 844 844 843 843 843 843 844 844 844 845 845 846 846 846 846 847 848 849 849 850 850 850 850 849 849 849 849 848 848 847 847 846 846 846 845 844
801 802 804 805 806 807 809 810 811 812 814 815 818 821 822 824 825 827 828 829 831 833 835 836 837 837 838 838 839 839 840 840 841 842 843 843 843 844 844 844 844 844 844 844 845 845 845 845 845 845 844 844 843 843 843 843 844 844 844 845 845 845 845 845 846 847 847 848 848 848 849 849 848 848 848 847 847 846 846 845 845 844 844 843 843
801 803 804 805 805 806 808 809 810 811 813 815 817 820 821 823 824 826 827 828 829 831 833 834 836 837 837 838 838 838 838 839 839 840 841 841 841 841 842 842 843 843 843 843 843 843 843 843 844 844 843 843 843 843 843 843 843 843 843 844 844 844 845 844 845 846 846 847 847 847 847 847 847 847 847 846 845 844 844 844 843 843 842 841 840
801 803 804 805 805 806 807 808 810 811 812 814 817 819 821 823 824 825 826 827 828 830 830 831 834 836 836 836 837 836 836 836 837 838 839 840 840 839 840 840 841 841 841 841 842 842 842 842 842 842 842 842 842 842 842 842 842 842 842 843 843 844 844 844 844 844 845 845 846 846 846 846 846 846 845 845 844 843 842 841 840 839 839 839 838
801 803 805 805 806 807 808 809 811 812 814 816 818 819 821 822 823 824 825 826 827 828 829 830 832 834 834 834 835 835 834 834 835 836 837 838 838 838 838 839 839 839 839 840 840 840 840 840 840 840 840 840 840 841 841 841 841 841 842 842 842 843 843 843 843 844 844 844 845 845 845 845 845 845 844 844 843 842 842 841 840 838 837 837 837
801 803 804 806 806 807 808 809 811 812 814 816 818 819 820 821 821 822 823 824 825 826 827 828 830 831 832 832 833 833 833 833 834 834 835 835 836 836 836 837 837 838 838 838 838 838 838 838 837 837 838 838 839 839 839 840 840 840 840 841 841 842 842 842 843 843 844 844 844 844 844 844 844 844 843 843 843 842 842 841 841 839 837 836 835
801 803 804 806 806 807 808 809 810 812 813 815 816 817 818 819 819 820 821 823 824 824 825 827 828 829 830 831 831 831 831 832 832 833 833 833 833 834 834 834 835 835 836 836 836 836 835 835 835 835 835 835 836 837 837 838 838 839 839 840 841 841 842 842 842 842 842 842 843 843 843 844 844 843 843 843 843 842 842 841 840 838 837 835 833
802 803 804 805 806 807 808 809 810 811 812 813 815 815 816 817 818 819 820 822 823 823 824 825 826 827 828 829 830 830 830 831 831 831 831 831 832 832 832 832 833 833 834 833 833 833 832 832 832 832 832 832 833 834 835 836 836 837 838 839 840 840 841 841 841 841 841 841 842 842 842 843 843 843 842 842 842 841 841 840 839 838 837 835 833
803 804 805 806 807 808 808 809 810 811 812 813 814 815 816 817 818 819 820 821 823 823 824 824 825 826 827 828 828 829 829 829 830 830 830 830 830 830 831 831 831 832 832 831 831 831 830 830 830 830 830 830 830 831 832 833 835 836 836 837 838 838 839 839 840 840 841 841 841 841 841 842 842 842 841 841 841 840 840 839 838 837 836 836 834
805 806 807 807 808 809 809 810 811 812 812 813 813 814 815 816 817 819 820 821 822 823 824 825 825 826 827 828 828 828 829 829 829 829 829 829 829 830 830 830 830 830 830 830 830 829 829 829 828 828 828 828 828 829 829 831 833 834 835 835 836 836 837 838 839 840 840 840 840 840 840 840 841 840 840 840 839 839 839 838 837 836 835 834 833
806 807 808 808 809 809 810 811 811 812 813 813 814 814 815 816 817 818 820 821 822 823 824 825 826 827 828 828 828 828 828 828 828 829 829 829 829 829 829 829 829 829 828 828 828 828 827 827 827 827 827 827 827 827 827 829 831 832 833 834 835 835 836 837 838 838 838 839 838 838 839 839 839 839 838 838 838 838 837 836 836 835 833 832 831
807 808 808 809 809 810 811 811 811 812 813 814 814 815 816 817 818 819 821 821 823 824 825 826 827 827 828 828 828 828 828 828 828 828 828 828 828 828 827 827 827 827 826 826 826 826 826 826 826 825 825 825 826 826 827 828 829 831 832 833 834 835 835 836 837 837 837 837 837 837 837 837 837 837 837 837 837 836 836 835 834 833 831 830 829
809 810 810 810 811 811 812 812 813 814 814 815 816 816 817 818 819 820 822 823 824 824 825 826 826 827 827 828 828 828 828 828 828 828 828 828 827 827 826 825 825 825 825 825 825 825 825 825 824 824 824 825 825 826 827 828 829 830 831 832 833 834 834 835 835 835 836 836 836 836 836 836 835 835 835 835 835 835 834 833 833 832 830 828 827
812 813 812 813 813 813 814 814 814 815 816 816 817 818 818 819 820 821 822 823 824 824 825 825 826 826 827 827 828 828 828 828 828 828 828 827 827 826 825 825 824 824 824 824 824 824 824 824 824 824 824 825 825 826 828 828 829 830 830 831 832 833 833 834 834 834 834 834 835 835 835 834 834 834 834 834 833 833 832 831 831 830 828 826 825
814 815 815 815 815 815 815 816 816 816 816 817 818 818 819 820 820 821 822 823 824 824 825 825 825 826 826 827 827 827 827 827 827 827 827 826 826 825 825 824 824 824 824 824 823 824 824 824 824 825 825 826 826 827 828 829 829 830 830 831 832 832 832 833 833 833 833 833 833 833 833 833 833 833 833 833 832 832 831 830 829 828 827 825 823
814 815 815 815 815 815 815 816 816 816 816 816 817 817 818 819 819 820 821 822 823 823 824 825 825 825 825 826 826 826 826 826 826 826 826 825 825 825 824 824 824 823 824 824 824 824 824 824 825 826 826 827 828 828 829 829 830 830 830 831 831 831 832 832 832 832 832 832 832 832 832 832 831 831 831 831 831 831 830 829 828 826 825 823 822
813 813 814 815 814 814 814 815 815 815 815 816 816 816 817 817 818 819 820 821 822 822 823 823 824 824 824 824 825 825 825 825 825 825 825 824 824 824 824 824 824 824 824 824 824 825 825 825 826 827 827 827 828 828 829 829 829 830 830 830 831 831 831 831 831 831 831 831 831 831 830 830 830 830 830 829 829 829 828 827 826 825 823 821 820
812 812 812 813 813 813 813 813 814 814 815 815 815 815 816 816 817 818 819 820 821 821 822 822 822 823 823 823 824 824 824 824 824 824 824 824 823 823 823 824 824 824 824 824 824 825 825 826 826 827 827 828 828 828 829 829 829 829 829 830 830 830 830 830 830 830 830 829 829 829 828 828 828 828 827 827 826 826 825 824 824 823 821 820 818
810 810 810 810 811 811 811 811 812 813 813 814 814 814 815 815 816 817 817 818 819 819 820 821 821 822 822 822 823 823 823 823 823 823 823 823 823 822 822 823 823 824 824 824 825 825 825 826 827 827 828 828 828 828 828 829 829 829 829 829 829 829 829 829 829 829 828 828 827 826 826 826 825 825 825 824 823 823 822 821 820 820 818 817 816
808 808 808 808 808 809 809 810 810 811 811 812 812 813 813 814 815 815 816 816 817 818 818 819 819 820 821 821 821 822 822 822 822 822 822 822 822 822 822 822 823 823 824 824 825 825 825 826 827 827 828 828 828 828 828 828 828 828 828 828 828 828 828 828 828 827 826 826 825 824 824 824 823 822 822 821 820 819 819 817 817 816 815 814 813
806 805 805 805 806 806 807 807 808 809 809 810 810 811 811 812 813 813 814 815 815 816 817 817 818 818 819 819 819 820 820 820 820 820 820 821 821 821 821 821 822 823 823 824 825 825 826 826 827 827 827 827 828 828 828 828 828 828 828 828 828 828 827 827 826 825 825 824 823 823 822 822 821 820 819 818 817 816 815 813 812 811 810 808 808
804 803 803 803 803 803 804 805 805 806 807 807 808 809 809 810 811 812 812 813 813 814 815 815 816 816 817 817 817 817 818 818 818 818 819 819 820 820 821 821 822 823 823 824 824 825 826 826 827 827 827 827 827 828 827 828 828 828 828 828 827 827 826 826 825 824 823 823 822 821 820 819 819 818 816 815 814 812 811 809 808 807 805 804 802
803 801 801 801 801 801 802 802 803 804 805 805 806 807 807 808 809 810 811 811 812 812 813 813 814 814 815 815 815 815 816 816 817 817 817 818 819 820 820 821 821 822 823 823 824 825 826 826 826 826 827 827 827 827 828 828 828 828 828 827 826 826 825 824 824 823 822 821 820 819 818 817 816 814 813 812 810 809 807 806 804 803 802 800 799
802 801 800 800 800 800 800 801 801 802 803 803 804 805 805 806 807 807 808 809 809 810 810 811 812 812 812 813 813 813 814 814 815 816 816 817 818 819 820 820 821 822 823 823 824 825 825 826 826 826 827 827 827 828 828 828 828 827 827 826 826 825 825 824 823 822 821 820 818 817 815 814 813 811 810 809 808 806 806 804 803 801 800 799 797
800 800 799 799 799 798 799 799 800 801 801 801 802 803 803 804 805 805 806 807 807 808 808 808 809 809 810 810 810 811 811 812 813 814 814 815 816 818 819 819 820 821 822 823 824 825 825 826 827 827 827 827 827 828 828 828 827 827 827 826 825 825 824 823 822 821 819 818 816 815 813 812 811 810 808 807 806 805 804 803 801 800 799 797 795
798 797 797 797 797 797 797 797 798 799 799 799 800 800 801 802 802 803 804 804 805 805 805 806 806 807 807 808 808 808 809 809 810 811 812 814 815 816 818 818 819 820 821 822 823 824 825 826 827 827 827 827 828 828 828 828 827 827 826 826 825 824 823 822 820 819 818 817 815 814 812 811 810 808 807 805 804 802 801 800 799 797 796 795 793
795 795 795 795 795 795 795 795 796 797 797 797 798 798 799 799 800 800 801 802 802 802 803 803 804 804 805 805 805 806 806 807 808 809 811 812 814 815 816 817 818 819 820 822 823 824 825 826 827 827 827 827 828 828 828 828 827 827 826 825 824 823 822 821 820 818 817 816 814 813 811 810 808 806 805 803 802 800 799 797 796 794 793 791 790
792 792 792 792 792 793 793 794 794 795 795 795 796 796 796 797 797 797 798 799 799 800 800 800 801 801 802 802 803 804 804 805 806 808 809 811 813 814 815 816 817 819 820 821 823 824 825 826 826 827 828 828 828 828 828 828 827 826 825 824 823 822 821 819 818 817 815 814 813 811 809 808 806 804 803 801 799 797 796 794 793 792 790 789 787
789 789 790 790 790 791 792 792 792 793 793 793 794 794 794 794 794 794 795 795 796 796 796 797 798 798 798 799 800 801 801 803 804 806 808 810 812 813 815 816 817 819 820 821 822 824 825 826 827 827 828 828 828 828 828 827 826 825 824 823 822 821 819 818 817 815 814 813 811 809 808 806 804 803 801 799 797 795 793 792 790 789 787 786 784
787 788 788 789 789 790 790 790 791 791 791 791 791 792 792 791 791 791 792 792 792 792 793 793 794 794 795 796 797 798 799 800 802 805 807 809 811 813 815 816 818 819 820 821 822 824 825 826 827 828 828 828 828 828 827 827 826 825 823 822 820 819 818 817 816 814 813 811 809 807 806 804 802 800 798 797 795 793 791 789 788 786 784 783 781
786 787 787 787 788 788 788 789 789 789 789 789 789 789 789 789 789 789 789 789 789 789 789 790 790 791 791 792 794 795 797 798 801 803 806 808 810 813 814 816 818 819 821 821 822 824 825 826 827 828 828 828 828 828 827 826 825 824 822 821 819 818 817 816 814 813 811 809 808 806 804 802 800 798 796 794 793 791 789 787 785 783 782 780 778
785 786 786 786 787 787 787 787 787 787 787 787 787 787 787 787 787 787 787 787 787 787 788 788 788 788 789 790 792 794 796 797 800 803 805 807 810 812 814 816 818 819 820 822 823 824 825 826 827 828 828 828 828 827 826 825 824 823 821 820 819 817 816 814 813 811 810 808 806 804 802 800 798 796 794 792 790 788 786 784 782 781 779 777 775
784 785 785 786 786 786 786 786 786 786 786 785 785 785 785 785 785 785 785 785 786 786 786 786 786 787 788 790 791 793 796 798 800 803 806 808 810 812 814 815 817 819 820 822 823 824 825 826 827 828 828 828 827 827 826 824 823 822 821 819 818 816 815 813 812 810 809 807 805 802 800 798 796 794 792 790 788 786 784 782 780 778 776 775 773
783 784 784 785 785 785 785 784 784 784 783 783 783 782 782 782 782 783 783 784 784 785 786 786 786 787 788 790 793 794 797 799 802 805 808 810 811 813 814 815 817 819 820 821 823 824 825 826 827 827 828 827 827 826 825 824 822 821 820 819 817 816 814 813 811 810 808 806 803 801 799 796 794 792 791 789 786 784 782 780 778 776 774 772 770
783 783 784 784 784 784 784 783 783 782 781 780 780 780 780 780 780 781 782 782 783 784 785 786 786 786 787 791 794 796 798 800 803 806 809 810 811 813 815 816 817 819 820 822 823 824 825 826 827 827 827 827 826 825 824 823 822 821 820 818 816 815 814 812 810 808 806 804 802 800 797 795 793 791 789 787 784 782 780 778 775 773 771 769 767
782 783 783 783 783 784 783 783 782 781 780 779 778 778 778 778 778 779 780 781 783 784 786 787 787 787 788 792 795 797 799 802 804 806 808 810 812 814 815 817 818 819 821 822 823 824 825 826 827 827 826 826 825 824 823 822 822 820 819 817 816 814 813 811 809 807 805 803 801 798 796 794 791 789 787 785 783 780 778 775 773 771 768 766 764
782 782 783 783 783 784 783 782 781 780 779 778 777 777 777 777 778 779 780 781 783 785 787 788 789 790 792 794 796 798 800 802 805 807 809 811 813 814 816 817 818 820 821 822 823 824 825 826 826 826 826 825 824 823 823 822 821 819 818 817 815 813 812 810 808 806 804 802 800 797 795 792 790 787 785 783 781 778 776 773 771 768 766 764 761
781 782 783 783 783 783 783 782 781 780 779 777 777 777 777 778 779 779 781 782 784 786 788 790 791 794 796 797 799 800 801 803 805 808 810 812 813 815 816 818 819 820 822 822 823 824 825 825 826 826 825 825 824 823 822 821 820 818 817 816 814 812 810 808 807 805 803 801 798 796 794 791 789 786 783 781 778 776 774 771 768 766 764 761 759
781 782 783 783 783 783 783 782 781 781 779 779 778 778 779 780 780 781 783 785 786 787 789 792 795 797 798 800 801 802 803 805 807 809 811 813 814 816 817 819 820 821 822 822 823 824 824 825 825 825 824 824 823 823 822 820 819 818 816 815 813 811 809 807 805 803 801 799 797 795 792 790 787 785 782 779 777 774 772 769 767 764 762 759 757
782 782 783 783 783 783 783 782 782 782 781 781 781 781 781 782 783 784 786 787 789 790 792 795 797 798 799 801 803 804 805 807 808 810 812 814 815 816 818 819 820 821 822 822 823 824 824 825 825 824 824 824 823 822 821 820 818 817 815 814 812 810 808 806 804 802 800 798 795 793 791 788 786 783 780 778 775 773 770 768 765 763 760 758 756
782 783 783 784 784 783 783 783 783 783 783 783 783 784 784 785 786 788 789 790 791 793 795 796 798 799 800 802 803 805 806 808 809 811 813 814 816 817 818 819 820 821 822 822 823 823 824 824 824 824 824 824 823 822 821 820 818 816 815 813 811 809 807 805 803 800 798 796 794 792 789 787 784 782 779 777 774 772 769 767 764 762 760 757 755
783 783 784 784 784 784 784 784 784 784 785 785 785 786 787 788 789 790 791 792 793 795 796 797 799 800 801 803 804 805 807 809 810 812 814 815 816 818 819 820 821 822 822 823 823 823 824 824 824 824 824 824 823 822 821 819 818 816 814 812 810 808 806 804 802 800 798 796 793 791 788 786 784 781 779 776 774 771 768 766 764 761 759 757 755
784 784 784 785 785 785 784 785 785 785 786 786 787 788 789 790 791 792 792 793 794 795 797 798 799 801 802 804 805 806 808 810 812 813 815 816 817 818 819 820 821 822 822 822 823 823 823 824 824 823 823 823 822 821 820 819 817 816 814 812 810 808 806 804 802 800 798 796 793 791 788 786 783 781 778 776 773 771 768 766 763 761 759 757 754
785 785 786 786 786 786 786 786 786 786 787 787 788 789 790 790 791 792 793 794 795 796 797 799 800 802 803 805 806 808 810 811 812 814 815 817 818 819 820 820 821 822 822 822 822 823 823 823 823 823 823 822 822 821 819 818 817 815 813 811 809 807 805 804 802 800 798 796 794 791 788 786 783 781 778 776 773 770 768 765 763 761 759 756 754
786 786 787 787 787 787 787 787 787 788 788 788 789 790 791 792 792 793 794 795 796 798 799 800 802 803 805 807 808 810 811 812 814 815 816 817 818 819 820 821 821 821 822 822 822 823 823 823 823 823 822 822 821 820 819 818 816 815 813 811 809 807 805 804 802 800 798 796 794 791 789 786 783 781 778 776 773 771 768 766 763 761 759 757 755
787 788 788 789 789 789 789 789 789 790 790 790 791 792 793 794 794 795 796 797 798 799 801 802 804 806 807 809 810 811 812 814 815 816 817 818 819 819 820 821 821 821 821 822 822 822 823 822 822 822 821 821 820 819 818 817 816 814 813 811 809 807 806 804 802 800 798 796 794 792 789 786 784 781 778 776 773 771 769 766 764 761 759 757 755
789 789 790 790 790 791 791 791 792 792 792 793 794 794 795 796 797 798 799 799 800 802 803 805 806 808 809 810 812 813 814 815 816 817 818 819 819 820 820 820 820 821 821 821 822 822 822 822 822 821 821 820 820 819 818 817 815 814 812 811 809 807 805 803 802 800 797 795 793 791 789 787 784 781 779 776 774 771 769 767 764 762 760 758 756
790 791 791 792 792 793 793 793 794 794 795 795 796 797 798 798 799 800 801 802 803 804 806 807 808 809 811 812 813 814 815 816 817 818 818 819 819 820 820 820 820 821 821 821 821 822 821 821 821 821 820 820 819 818 817 816 815 813 812 811 809 807 805 803 801 799 797 795 793 791 789 787 784 781 779 777 774 772 770 767 765 763 761 759 758